PISAT (41784 NORAD) Tracking and Keplerian Element Data

This shows tracking and keplerian element data for the satellite.

Feedback or suggestion? Click here.




ElementValue
Catalog41784
NamePISAT
Epoch Orbit11836
Epoch Day348.75856521
Epoch Year2018
RAAN47.7265
Inclination98.0966
Eccentricity0.0030843
Argument of Perigee245.8047
Mean Anonmoly113.9931
Mean Motion14.63387478
Decay Rate6.4E-07
L11 41784U 16059B 18348.75856521 .00000064 00000-0 21660-4 0 9997
L22 41784 98.0966 47.7265 0030843 245.8047 113.9931 14.63387478118360

Live tracking and technical data element details for PISAT (NORAD 41784). PISAT can be tracked NOW for your location showing map with azimuth and elevation plus other details from your city location.

Track the satellite on the map from your city or location and see movement details for azimuth, elevation, latitude, longitude, range, height, and movement on the map or in text.







IsCatalogInMostPopularTable: catalog: 41784, numindb: 128
Update: records affected: 1



GetName: 41784 PISAT

Hit Count: updated at: Sun, 16 Dec 2018 03:41:35 GMT